Location: Westminster
(33.3626°N, 96.4619°W)
Time: 20:22:01
(UTC+00:00)

Cosmos 1777 Rocket - Pass Details

Date: 03 December 2021
Orbit: 757 x 776 km, 74.0° (Epoch: 26 January)

Event Time Altitude Azimuth Distance (km) Brightness Sun altitude
Rises 12:26:31 0° 199° (SSW) 3,198 7.2 -9.9°
Reaches altitude 10° 12:28:52 10° 200° (SSW) 2,278 6.5 -9.4°
Maximum altitude 12:34:02 78° 287° (WNW) 780 3.9 -8.4°
Drops below altitude 10° 12:39:15 10° 14° (NNE) 2,301 6.4 -7.4°
Sets 12:41:39 0° 16° (NNE) 3,233 7.2 -6.9°
